Madison, WI

3:48 AM CST on January 17, 2017 (GMT -0600)
Dane County Regional-Truax

Weather History for KMSN - June, 2014

Change the Weather History Date:

Tuesday, June 10, 2014

  Actual Average Record
Temperature  
Mean Temperature 64 °F 66 °F  
Max Temperature 70 °F 77 °F 96 °F (1956)
Min Temperature 57 °F 54 °F 31 °F (1972)
Degree Days  
Heating Degree Days 1 3  
Month to date heating degree days 6 36  
Since 1 June heating degree days 6 36  
Since 1 July heating degree days 8054 7309  
Cooling Degree Days 0 3  
Month to date cooling degree days 38 23  
Year to date cooling degree days 89 53  
Since 1 June cooling degree days 38 23  
Growing Degree Days 14 (Base 50)    
Moisture  
Dew Point 51 °F    
Average Humidity 62    
Maximum Humidity 72    
Minimum Humidity 52    
Precipitation  
Precipitation T in 0.15 in 2.81 in (1893)
Month to date precipitation 2.91 1.49  
Year to date precipitation 14.66 13.32  
Snow  
Snow 0.00 in 0.00 in 0.00 in ()
Month to date snowfall 0.0 0.0  
Since 1 June snowfall 0.0 0.0  
Since 1 July snowfall 59.2 50.9  
Snow Depth 0.00 in    
Sea Level Pressure  
Sea Level Pressure 29.92 in    
Wind  
Wind Speed 8 mph (NE)    
Max Wind Speed 14 mph    
Max Gust Speed 17 mph    
Visibility 10 miles    
Events      
T = Trace of Precipitation, MM = Missing Value Source: NWS Daily Summary

Daily Weather History Graph

Daily Weather History Graph

Search for Another Location

Airport or City:

Trip Planner

Search our weather history database for the weather conditions in past years. The results will help you decide how hot, cold, wet, or windy it might be!

Date:

Astronomy

Jun. 10, 2014 Rise Set
Actual Time 5:17 AM CDT 8:36 PM CDT
Civil Twilight 4:42 AM CDT 9:11 PM CDT
Nautical Twilight 3:56 AM CDT 9:57 PM CDT
Astronomical Twilight 3:00 AM CDT 10:53 PM CDT
Moon 5:58 PM CDT (6/10) 3:27 AM CDT (6/10)
Length of Visible Light 16h 29m
Length of Day
15h 18m
Waxing Gibbous, 92% of the Moon is Illuminated
Jun 10
Waxing Gibbous
Jun 12
Full
Jun 19
Last Quarter
Jun 27
New
Jul 5
First Quarter

Hourly Weather History & Observations

Time (CDT) Temp. Dew Point Humidity Pressure Visibility Wind Dir Wind Speed Gust Speed Precip Events Conditions
12:53 AM 62.1 °F 51.1 °F 67% 29.98 in 10.0 mi East 5.8 mph - N/A   Mostly Cloudy
1:53 AM 61.0 °F 46.0 °F 58% 29.95 in 10.0 mi East 6.9 mph - N/A   Overcast
2:53 AM 60.1 °F 45.0 °F 57% 29.95 in 10.0 mi ENE 4.6 mph - N/A   Overcast
3:53 AM 57.9 °F 46.0 °F 65% 29.95 in 10.0 mi North - - N/A   Clear
4:53 AM 57.9 °F 46.0 °F 65% 29.94 in 10.0 mi Calm Calm - N/A   Clear
5:53 AM 57.9 °F 46.0 °F 65% 29.94 in 10.0 mi North 5.8 mph - N/A   Overcast
6:53 AM 59.0 °F 48.9 °F 69% 29.94 in 10.0 mi Calm Calm - N/A   Overcast
7:53 AM 62.1 °F 48.9 °F 62% 29.95 in 10.0 mi NNE 6.9 mph - N/A   Overcast
8:53 AM 64.9 °F 48.0 °F 54% 29.94 in 10.0 mi NE 8.1 mph - N/A   Overcast
9:53 AM 66.2 °F 48.2 °F 52% 29.95 in 10.0 mi NE 10.4 mph - N/A   Overcast
10:53 AM 66.0 °F 51.1 °F 59% 29.94 in 10.0 mi NE 11.5 mph - N/A   Overcast
11:53 AM 66.2 °F 50.0 °F 56% 29.95 in 10.0 mi NE 12.7 mph - N/A   Overcast
12:53 PM 68.0 °F 52.0 °F 56% 29.94 in 10.0 mi NE 8.1 mph - N/A   Overcast
1:53 PM 69.8 °F 51.8 °F 53% 29.94 in 10.0 mi ENE 10.4 mph - N/A   Overcast
3:53 PM 69.8 °F 55.4 °F 60% 29.92 in 10.0 mi ENE 9.2 mph - N/A   Overcast
4:53 PM 69.1 °F 55.0 °F 61% 29.91 in 10.0 mi NE 10.4 mph - N/A   Overcast
5:53 PM 69.1 °F 55.0 °F 61% 29.90 in 10.0 mi ENE 11.5 mph - N/A   Overcast
6:53 PM 68.0 °F 55.0 °F 63% 29.89 in 10.0 mi ENE 6.9 mph - N/A   Overcast
7:53 PM 66.0 °F 55.0 °F 68% 29.88 in 10.0 mi NE 9.2 mph - 0.00 in   Overcast
8:53 PM 64.9 °F 54.0 °F 68% 29.87 in 10.0 mi NNE 10.4 mph - N/A   Overcast
9:53 PM 64.4 °F 53.6 °F 68% 29.88 in 10.0 mi NNE 9.2 mph - N/A   Overcast
10:53 PM 64.0 °F 54.0 °F 70% 29.86 in 10.0 mi NNE 6.9 mph - N/A   Overcast
11:53 PM 63.0 °F 53.1 °F 70% 29.84 in 10.0 mi NE 5.8 mph - N/A   Overcast